Time,TemperatureF,DewpointF,PressureIn,WindDirection,WindDirectionDegrees,WindSpeedMPH,WindSpeedGustMPH,Humidity,HourlyPrecipIn,Conditions,Clouds,dailyrainin,SoftwareType,DateUTC
2013-02-25 00:00:00,24.5,17.6,30.12,NNE,23,0.0,0.0,75,0.00,,,0.00,WUHU216HW,2013-02-25 06:00:00,
2013-02-25 00:05:00,24.7,17.8,30.12,NE,45,0.0,0.2,75,0.00,,,0.00,WUHU216HW,2013-02-25 06:05:00,
2013-02-25 00:10:00,24.7,17.8,30.11,NE,45,0.0,0.2,75,0.00,,,0.00,WUHU216HW,2013-02-25 06:10:00,
2013-02-25 00:15:00,24.8,18.0,30.11,NE,45,0.0,0.0,75,0.00,,,0.00,WUHU216HW,2013-02-25 06:15:00,
2013-02-25 00:20:00,24.8,18.0,30.12,NNW,338,0.0,0.0,75,0.00,,,0.00,WUHU216HW,2013-02-25 06:20:00,
2013-02-25 00:25:00,24.8,18.0,30.12,NW,315,0.0,0.0,75,0.00,,,0.00,WUHU216HW,2013-02-25 06:25:00,
2013-02-25 00:30:00,24.8,18.0,30.12,NW,315,0.0,0.0,75,0.00,,,0.00,WUHU216HW,2013-02-25 06:30:00,
2013-02-25 00:35:00,24.8,18.0,30.12,NW,315,0.0,0.0,75,0.00,,,0.00,WUHU216HW,2013-02-25 06:35:00,
2013-02-25 00:40:00,25.0,17.8,30.12,NW,315,0.0,0.0,74,0.00,,,0.00,WUHU216HW,2013-02-25 06:40:00,
2013-02-25 00:45:00,25.0,17.8,30.12,NW,315,0.0,0.0,74,0.00,,,0.00,WUHU216HW,2013-02-25 06:45:00,
2013-02-25 00:50:00,25.0,17.8,30.12,NW,315,0.0,0.0,74,0.00,,,0.00,WUHU216HW,2013-02-25 06:50:00,
2013-02-25 00:55:00,25.0,17.8,30.12,NW,315,0.0,0.0,74,0.00,,,0.00,WUHU216HW,2013-02-25 06:55:00,
2013-02-25 01:00:00,25.0,17.8,30.12,NW,315,0.0,0.0,74,0.00,,,0.00,WUHU216HW,2013-02-25 07:00:00,
2013-02-25 01:05:00,25.0,17.8,30.12,NW,315,0.0,0.0,74,0.00,,,0.00,WUHU216HW,2013-02-25 07:05:00,
2013-02-25 01:10:00,25.0,18.2,30.11,ENE,68,0.0,0.0,75,0.00,,,0.00,WUHU216HW,2013-02-25 07:10:00,
2013-02-25 01:15:00,24.8,18.0,30.12,ENE,68,0.0,0.0,75,0.00,,,0.00,WUHU216HW,2013-02-25 07:15:00,
2013-02-25 01:20:00,24.8,18.0,30.12,ENE,68,0.0,0.0,75,0.00,,,0.00,WUHU216HW,2013-02-25 07:20:00,
2013-02-25 01:25:00,25.0,18.2,30.12,ENE,68,0.0,0.0,75,0.00,,,0.00,WUHU216HW,2013-02-25 07:25:00,
2013-02-25 01:30:00,25.0,18.2,30.12,ENE,68,0.0,0.0,75,0.00,,,0.00,WUHU216HW,2013-02-25 07:30:00,
2013-02-25 01:35:00,25.0,18.2,30.12,East,90,0.0,0.0,75,0.00,,,0.00,WUHU216HW,2013-02-25 07:35:00,
2013-02-25 01:40:00,25.0,18.2,30.12,East,90,0.0,0.0,75,0.00,,,0.00,WUHU216HW,2013-02-25 07:40:00,
2013-02-25 01:45:00,25.0,18.2,30.12,East,90,0.0,0.0,75,0.00,,,0.00,WUHU216HW,2013-02-25 07:45:00,
2013-02-25 01:50:00,25.2,18.4,30.12,East,90,0.0,0.0,75,0.00,,,0.00,WUHU216HW,2013-02-25 07:50:00,
2013-02-25 01:55:00,25.2,18.4,30.12,East,90,0.0,0.0,75,0.00,,,0.00,WUHU216HW,2013-02-25 07:55:00,
2013-02-25 02:00:00,25.2,18.4,30.11,East,90,0.0,0.0,75,0.00,,,0.00,WUHU216HW,2013-02-25 08:00:00,
2013-02-25 02:05:00,25.2,18.4,30.11,East,90,0.0,0.0,75,0.00,,,0.00,WUHU216HW,2013-02-25 08:05:00,
2013-02-25 02:10:00,25.2,18.4,30.11,ENE,68,0.2,0.4,75,0.00,,,0.00,WUHU216HW,2013-02-25 08:10:00,
2013-02-25 02:15:00,25.2,18.4,30.11,ENE,68,0.0,0.4,75,0.00,,,0.00,WUHU216HW,2013-02-25 08:15:00,
2013-02-25 02:20:00,25.2,18.0,30.11,ENE,68,0.0,0.2,74,0.00,,,0.00,WUHU216HW,2013-02-25 08:20:00,
2013-02-25 02:25:00,25.2,18.4,30.11,West,270,0.0,0.0,75,0.00,,,0.00,WUHU216HW,2013-02-25 08:25:00,
2013-02-25 02:30:00,25.2,18.4,30.11,West,270,0.0,0.0,75,0.00,,,0.00,WUHU216HW,2013-02-25 08:30:00,
2013-02-25 02:35:00,25.2,18.4,30.11,West,270,0.0,0.0,75,0.00,,,0.00,WUHU216HW,2013-02-25 08:35:00,
2013-02-25 02:40:00,25.2,18.4,30.11,West,270,0.0,0.0,75,0.00,,,0.00,WUHU216HW,2013-02-25 08:40:00,
2013-02-25 02:45:00,25.2,18.4,30.11,West,270,0.0,0.0,75,0.00,,,0.00,WUHU216HW,2013-02-25 08:45:00,
2013-02-25 02:50:00,25.2,18.4,30.11,West,270,0.0,0.0,75,0.00,,,0.00,WUHU216HW,2013-02-25 08:50:00,
2013-02-25 02:55:00,25.2,18.4,30.11,West,270,0.0,0.0,75,0.00,,,0.00,WUHU216HW,2013-02-25 08:55:00,
2013-02-25 03:00:00,25.2,18.4,30.11,West,270,0.0,0.0,75,0.00,,,0.00,WUHU216HW,2013-02-25 09:00:00,
2013-02-25 03:05:00,25.2,18.4,30.11,West,270,0.0,0.0,75,0.00,,,0.00,WUHU216HW,2013-02-25 09:05:00,
2013-02-25 03:10:00,25.2,18.4,30.10,West,270,0.0,0.0,75,0.00,,,0.00,WUHU216HW,2013-02-25 09:10:00,
2013-02-25 03:15:00,25.2,18.4,30.10,West,270,0.0,0.0,75,0.00,,,0.00,WUHU216HW,2013-02-25 09:15:00,
2013-02-25 03:20:00,25.2,18.4,30.10,West,270,0.0,0.0,75,0.00,,,0.00,WUHU216HW,2013-02-25 09:20:00,
2013-02-25 03:25:00,25.2,18.4,30.10,West,270,0.0,0.0,75,0.00,,,0.00,WUHU216HW,2013-02-25 09:25:00,
2013-02-25 03:30:00,25.2,18.6,30.10,West,270,0.2,0.2,76,0.00,,,0.00,WUHU216HW,2013-02-25 09:30:00,
2013-02-25 03:35:00,25.2,18.6,30.10,West,270,0.0,0.2,76,0.00,,,0.00,WUHU216HW,2013-02-25 09:35:00,
2013-02-25 03:40:00,25.2,19.0,30.10,West,270,0.0,0.2,77,0.00,,,0.00,WUHU216HW,2013-02-25 09:40:00,
2013-02-25 03:45:00,25.0,18.5,30.10,West,270,0.0,0.0,76,0.00,,,0.00,WUHU216HW,2013-02-25 09:45:00,
2013-02-25 03:50:00,25.0,18.8,30.10,West,270,0.0,0.0,77,0.00,,,0.00,WUHU216HW,2013-02-25 09:50:00,
2013-02-25 03:55:00,25.2,19.0,30.10,West,270,0.0,0.0,77,0.00,,,0.00,WUHU216HW,2013-02-25 09:55:00,
2013-02-25 04:00:00,25.0,18.8,30.09,WNW,293,0.0,0.0,77,0.00,,,0.00,WUHU216HW,2013-02-25 10:00:00,
2013-02-25 04:05:00,25.2,19.0,30.10,WNW,293,0.0,0.0,77,0.00,,,0.00,WUHU216HW,2013-02-25 10:05:00,
2013-02-25 04:10:00,25.2,19.0,30.10,WNW,293,0.0,0.0,77,0.00,,,0.00,WUHU216HW,2013-02-25 10:10:00,
2013-02-25 04:15:00,25.0,18.5,30.10,WNW,293,0.0,0.0,76,0.00,,,0.00,WUHU216HW,2013-02-25 10:15:00,
2013-02-25 04:20:00,25.0,18.5,30.10,WNW,293,0.0,0.0,76,0.00,,,0.00,WUHU216HW,2013-02-25 10:20:00,
2013-02-25 04:25:00,25.0,18.5,30.10,WNW,293,0.0,0.0,76,0.00,,,0.00,WUHU216HW,2013-02-25 10:25:00,
2013-02-25 04:30:00,25.0,18.5,30.10,WNW,293,0.0,0.0,76,0.00,,,0.00,WUHU216HW,2013-02-25 10:30:00,
2013-02-25 04:35:00,25.0,18.5,30.10,WNW,293,0.0,0.0,76,0.00,,,0.00,WUHU216HW,2013-02-25 10:35:00,
2013-02-25 04:40:00,25.2,18.6,30.10,WNW,293,0.0,0.0,76,0.00,,,0.00,WUHU216HW,2013-02-25 10:40:00,
2013-02-25 04:45:00,25.2,18.6,30.10,West,270,0.0,0.0,76,0.00,,,0.00,WUHU216HW,2013-02-25 10:45:00,
2013-02-25 04:50:00,25.2,19.0,30.10,WNW,293,0.0,0.2,77,0.00,,,0.00,WUHU216HW,2013-02-25 10:50:00,
2013-02-25 04:55:00,25.2,19.0,30.10,NW,315,0.0,0.2,77,0.00,,,0.00,WUHU216HW,2013-02-25 10:55:00,
2013-02-25 05:00:00,25.0,18.8,30.10,NNE,23,0.0,0.0,77,0.00,,,0.00,WUHU216HW,2013-02-25 11:00:00,
2013-02-25 05:05:00,25.0,18.8,30.10,ENE,68,0.0,0.0,77,0.00,,,0.00,WUHU216HW,2013-02-25 11:05:00,
2013-02-25 05:10:00,25.2,19.0,30.10,ENE,68,0.0,0.0,77,0.00,,,0.00,WUHU216HW,2013-02-25 11:10:00,
2013-02-25 05:15:00,25.0,18.8,30.10,ENE,68,0.0,0.0,77,0.00,,,0.00,WUHU216HW,2013-02-25 11:15:00,
2013-02-25 05:20:00,25.2,19.0,30.10,ENE,68,0.0,0.0,77,0.00,,,0.00,WUHU216HW,2013-02-25 11:20:00,
2013-02-25 05:25:00,25.2,19.0,30.10,ENE,68,0.0,0.0,77,0.00,,,0.00,WUHU216HW,2013-02-25 11:25:00,
2013-02-25 05:30:00,25.2,19.0,30.10,ENE,68,0.0,0.0,77,0.00,,,0.00,WUHU216HW,2013-02-25 11:30:00,
2013-02-25 05:35:00,25.0,19.2,30.09,NNW,338,0.0,0.0,78,0.00,,,0.00,WUHU216HW,2013-02-25 11:35:00,
2013-02-25 05:40:00,25.2,19.3,30.09,NNW,338,0.0,0.0,78,0.00,,,0.00,WUHU216HW,2013-02-25 11:40:00,
2013-02-25 05:45:00,25.2,19.0,30.09,NNW,338,0.0,0.0,77,0.00,,,0.00,WUHU216HW,2013-02-25 11:45:00,
2013-02-25 05:50:00,25.2,19.0,30.09,NNW,338,0.0,0.0,77,0.00,,,0.00,WUHU216HW,2013-02-25 11:50:00,
2013-02-25 05:55:00,25.2,19.0,30.10,NNW,338,0.0,0.0,77,0.00,,,0.00,WUHU216HW,2013-02-25 11:55:00,
2013-02-25 06:00:00,25.2,19.0,30.10,NNW,338,0.0,0.0,77,0.00,,,0.00,WUHU216HW,2013-02-25 12:00:00,
2013-02-25 06:05:00,25.2,19.0,30.11,NNW,338,0.0,0.0,77,0.00,,,0.00,WUHU216HW,2013-02-25 12:05:00,
2013-02-25 06:10:00,25.2,19.3,30.11,NNW,338,0.0,0.0,78,0.00,,,0.00,WUHU216HW,2013-02-25 12:10:00,
2013-02-25 06:15:00,25.2,19.3,30.11,NW,315,0.0,0.2,78,0.00,,,0.00,WUHU216HW,2013-02-25 12:15:00,
2013-02-25 06:20:00,25.2,19.3,30.12,NW,315,0.0,0.2,78,0.00,,,0.00,WUHU216HW,2013-02-25 12:20:00,
2013-02-25 06:25:00,25.0,19.2,30.12,West,270,0.0,0.0,78,0.00,,,0.00,WUHU216HW,2013-02-25 12:25:00,
2013-02-25 06:30:00,25.0,19.4,30.12,WNW,293,0.0,0.4,79,0.00,,,0.00,WUHU216HW,2013-02-25 12:30:00,
2013-02-25 06:35:00,25.0,19.2,30.13,West,270,0.0,0.4,78,0.00,,,0.00,WUHU216HW,2013-02-25 12:35:00,
2013-02-25 06:40:00,25.0,19.4,30.12,WNW,293,0.2,0.4,79,0.00,,,0.00,WUHU216HW,2013-02-25 12:40:00,
2013-02-25 06:45:00,25.0,19.2,30.12,WNW,293,0.0,0.4,78,0.00,,,0.00,WUHU216HW,2013-02-25 12:45:00,
2013-02-25 06:50:00,25.0,19.2,30.12,WNW,293,0.0,0.2,78,0.00,,,0.00,WUHU216HW,2013-02-25 12:50:00,
2013-02-25 06:55:00,25.2,19.3,30.12,West,270,0.0,0.0,78,0.00,,,0.00,WUHU216HW,2013-02-25 12:55:00,
2013-02-25 07:00:00,25.2,19.3,30.12,WNW,293,0.0,0.0,78,0.00,,,0.00,WUHU216HW,2013-02-25 13:00:00,
2013-02-25 07:05:00,25.2,19.0,30.12,ESE,113,0.0,0.0,77,0.00,,,0.00,WUHU216HW,2013-02-25 13:05:00,
2013-02-25 07:10:00,25.2,19.0,30.12,ESE,113,0.0,0.0,77,0.00,,,0.00,WUHU216HW,2013-02-25 13:10:00,
2013-02-25 07:15:00,25.2,19.0,30.12,ESE,113,0.0,0.0,77,0.00,,,0.00,WUHU216HW,2013-02-25 13:15:00,
2013-02-25 07:20:00,25.2,19.0,30.12,ESE,113,0.0,0.0,77,0.00,,,0.00,WUHU216HW,2013-02-25 13:20:00,
2013-02-25 07:25:00,25.4,19.2,30.12,ESE,113,0.0,0.0,77,0.00,,,0.00,WUHU216HW,2013-02-25 13:25:00,
2013-02-25 07:30:00,25.6,19.4,30.12,ESE,113,0.0,0.0,77,0.00,,,0.00,WUHU216HW,2013-02-25 13:30:00,
2013-02-25 07:35:00,25.6,19.4,30.12,SW,225,0.0,0.0,77,0.00,,,0.00,WUHU216HW,2013-02-25 13:35:00,
2013-02-25 07:40:00,25.6,19.4,30.12,WSW,248,0.0,0.2,77,0.00,,,0.00,WUHU216HW,2013-02-25 13:40:00,
2013-02-25 07:45:00,25.6,19.4,30.12,WSW,248,0.0,0.4,77,0.00,,,0.00,WUHU216HW,2013-02-25 13:45:00,
2013-02-25 07:50:00,25.7,19.5,30.11,NW,315,0.0,0.4,77,0.00,,,0.00,WUHU216HW,2013-02-25 13:50:00,
2013-02-25 07:55:00,25.9,19.6,30.11,WNW,293,0.0,0.2,77,0.00,,,0.00,WUHU216HW,2013-02-25 13:55:00,
2013-02-25 08:00:00,26.1,19.8,30.11,WNW,293,0.0,0.4,77,0.00,,,0.00,WUHU216HW,2013-02-25 14:00:00,
2013-02-25 08:06:00,26.3,20.0,30.11,WSW,248,0.0,0.4,77,0.00,,,0.00,WUHU216HW,2013-02-25 14:06:00,
2013-02-25 08:11:00,26.3,20.0,30.12,WSW,248,0.0,0.2,77,0.00,,,0.00,WUHU216HW,2013-02-25 14:11:00,
2013-02-25 08:16:00,26.5,20.2,30.12,WSW,248,0.4,0.4,77,0.00,,,0.00,WUHU216HW,2013-02-25 14:16:00,
2013-02-25 08:21:00,26.5,19.9,30.13,West,270,0.4,1.1,76,0.00,,,0.00,WUHU216HW,2013-02-25 14:21:00,
2013-02-25 08:26:00,26.6,20.0,30.13,WSW,248,0.4,1.1,76,0.00,,,0.00,WUHU216HW,2013-02-25 14:26:00,
2013-02-25 08:31:00,26.8,20.2,30.13,WSW,248,0.9,1.6,76,0.00,,,0.00,WUHU216HW,2013-02-25 14:31:00,
2013-02-25 08:36:00,26.6,19.7,30.13,WSW,248,0.4,1.8,75,0.00,,,0.00,WUHU216HW,2013-02-25 14:36:00,
2013-02-25 08:41:00,26.8,19.9,30.13,WNW,293,0.4,2.0,75,0.00,,,0.00,WUHU216HW,2013-02-25 14:41:00,
2013-02-25 08:46:00,27.0,20.1,30.13,WSW,248,0.4,2.0,75,0.00,,,0.00,WUHU216HW,2013-02-25 14:46:00,
2013-02-25 08:51:00,27.4,20.4,30.13,SW,225,0.4,1.1,75,0.00,,,0.00,WUHU216HW,2013-02-25 14:51:00,
2013-02-25 08:56:00,27.5,20.9,30.13,SW,225,0.4,1.6,76,0.00,,,0.00,WUHU216HW,2013-02-25 14:56:00,
2013-02-25 09:01:00,27.7,20.8,30.13,SW,225,0.7,1.6,75,0.00,,,0.00,WUHU216HW,2013-02-25 15:01:00,
2013-02-25 09:06:00,28.1,21.2,30.13,SW,225,0.2,1.1,75,0.00,,,0.00,WUHU216HW,2013-02-25 15:06:00,
2013-02-25 09:11:00,28.3,21.3,30.13,WSW,248,0.0,1.1,75,0.00,,,0.00,WUHU216HW,2013-02-25 15:11:00,
2013-02-25 09:16:00,28.6,21.3,30.13,West,270,0.7,1.1,74,0.00,,,0.00,WUHU216HW,2013-02-25 15:16:00,
2013-02-25 09:21:00,28.4,20.9,30.13,WNW,293,0.4,1.3,73,0.00,,,0.00,WUHU216HW,2013-02-25 15:21:00,
2013-02-25 09:26:00,29.0,21.1,30.13,NW,315,0.9,1.3,72,0.00,,,0.00,WUHU216HW,2013-02-25 15:26:00,
2013-02-25 09:31:00,29.2,21.2,30.13,West,270,0.9,0.9,72,0.00,,,0.00,WUHU216HW,2013-02-25 15:31:00,
2013-02-25 09:36:00,29.2,21.0,30.13,WSW,248,1.3,1.8,71,0.00,,,0.00,WUHU216HW,2013-02-25 15:36:00,
2013-02-25 09:41:00,29.2,21.0,30.13,NW,315,1.8,1.8,71,0.00,,,0.00,WUHU216HW,2013-02-25 15:41:00,
2013-02-25 09:46:00,29.2,21.0,30.13,WSW,248,1.1,1.8,71,0.00,,,0.00,WUHU216HW,2013-02-25 15:46:00,
2013-02-25 09:51:00,29.5,21.2,30.13,West,270,0.4,2.5,71,0.00,,,0.00,WUHU216HW,2013-02-25 15:51:00,
2013-02-25 09:56:00,30.1,22.1,30.13,NNW,338,0.0,2.5,72,0.00,,,0.00,WUHU216HW,2013-02-25 15:56:00,
2013-02-25 10:01:00,31.0,23.0,30.13,WSW,248,0.7,0.9,72,0.00,,,0.00,WUHU216HW,2013-02-25 16:01:00,
2013-02-25 10:06:00,31.3,21.6,30.13,West,270,1.6,1.6,67,0.00,,,0.00,WUHU216HW,2013-02-25 16:06:00,
2013-02-25 10:11:00,31.3,21.2,30.13,WNW,293,1.1,1.8,66,0.00,,,0.00,WUHU216HW,2013-02-25 16:11:00,
2013-02-25 10:16:00,31.0,20.9,30.13,West,270,0.4,2.2,66,0.00,,,0.00,WUHU216HW,2013-02-25 16:16:00,
2013-02-25 10:21:00,31.0,20.9,30.13,WSW,248,1.1,2.2,66,0.00,,,0.00,WUHU216HW,2013-02-25 16:21:00,
2013-02-25 10:26:00,31.3,21.6,30.13,NW,315,0.0,1.3,67,0.00,,,0.00,WUHU216HW,2013-02-25 16:26:00,
2013-02-25 10:31:00,32.0,22.3,30.13,West,270,0.9,1.1,67,0.00,,,0.00,WUHU216HW,2013-02-25 16:31:00,
2013-02-25 10:36:00,32.8,23.0,30.12,WNW,293,0.0,1.6,67,0.00,,,0.00,WUHU216HW,2013-02-25 16:36:00,
2013-02-25 10:41:00,33.1,22.2,30.12,SW,225,1.1,1.8,64,0.00,,,0.00,WUHU216HW,2013-02-25 16:41:00,
2013-02-25 10:46:00,33.5,22.5,30.12,WSW,248,1.3,2.2,64,0.00,,,0.00,WUHU216HW,2013-02-25 16:46:00,
2013-02-25 10:51:00,33.7,22.7,30.13,SW,225,1.1,2.2,64,0.00,,,0.00,WUHU216HW,2013-02-25 16:51:00,
2013-02-25 10:56:00,34.0,22.7,30.13,West,270,0.0,2.2,63,0.00,,,0.00,WUHU216HW,2013-02-25 16:56:00,
2013-02-25 11:01:00,34.6,23.9,30.13,WNW,293,1.6,2.2,65,0.00,,,0.00,WUHU216HW,2013-02-25 17:01:00,
2013-02-25 11:06:00,35.1,24.1,30.13,SW,225,1.6,1.6,64,0.00,,,0.00,WUHU216HW,2013-02-25 17:06:00,
2013-02-25 11:11:00,34.9,22.9,30.13,SW,225,1.6,2.5,61,0.00,,,0.00,WUHU216HW,2013-02-25 17:11:00,
2013-02-25 11:16:00,34.7,23.4,30.13,SSE,158,0.2,2.5,63,0.00,,,0.00,WUHU216HW,2013-02-25 17:16:00,
2013-02-25 11:21:00,35.6,23.9,30.13,WSW,248,0.0,1.8,62,0.00,,,0.00,WUHU216HW,2013-02-25 17:21:00,
2013-02-25 11:26:00,36.0,24.0,30.13,West,270,1.8,1.8,61,0.00,,,0.00,WUHU216HW,2013-02-25 17:26:00,
2013-02-25 11:31:00,36.5,24.0,30.13,WSW,248,1.1,1.8,60,0.00,,,0.00,WUHU216HW,2013-02-25 17:31:00,
2013-02-25 11:36:00,36.5,24.0,30.13,SW,225,1.3,2.0,60,0.00,,,0.00,WUHU216HW,2013-02-25 17:36:00,
2013-02-25 11:41:00,36.9,24.4,30.13,SSW,203,0.2,2.0,60,0.00,,,0.00,WUHU216HW,2013-02-25 17:41:00,
2013-02-25 11:46:00,37.4,23.9,30.13,WSW,248,1.6,1.8,58,0.00,,,0.00,WUHU216HW,2013-02-25 17:46:00,
2013-02-25 11:51:00,36.7,23.3,30.12,West,270,3.6,3.6,58,0.00,,,0.00,WUHU216HW,2013-02-25 17:51:00,
2013-02-25 11:56:00,36.4,23.9,30.12,SW,225,0.7,3.8,60,0.00,,,0.00,WUHU216HW,2013-02-25 17:56:00,
2013-02-25 12:01:00,36.5,23.6,30.12,WSW,248,1.1,3.8,59,0.00,,,0.00,WUHU216HW,2013-02-25 18:01:00,
2013-02-25 12:06:00,37.3,24.7,30.12,West,270,2.0,2.5,60,0.00,,,0.00,WUHU216HW,2013-02-25 18:06:00,
2013-02-25 12:11:00,37.6,25.0,30.12,SW,225,0.4,2.2,60,0.00,,,0.00,WUHU216HW,2013-02-25 18:11:00,
2013-02-25 12:16:00,37.4,23.6,30.12,SSW,203,1.1,2.9,57,0.00,,,0.00,WUHU216HW,2013-02-25 18:16:00,
2013-02-25 12:21:00,37.3,23.9,30.12,West,270,1.3,2.9,58,0.00,,,0.00,WUHU216HW,2013-02-25 18:21:00,
2013-02-25 12:26:00,37.1,23.7,30.12,WNW,293,0.4,2.7,58,0.00,,,0.00,WUHU216HW,2013-02-25 18:26:00,
2013-02-25 12:31:00,37.1,24.1,30.11,NNW,338,0.0,2.5,59,0.00,,,0.00,WUHU216HW,2013-02-25 18:31:00,
2013-02-25 12:36:00,38.9,25.8,30.11,West,270,1.8,2.5,59,0.00,,,0.00,WUHU216HW,2013-02-25 18:36:00,
2013-02-25 12:41:00,38.5,24.5,30.11,East,90,0.2,2.9,57,0.00,,,0.00,WUHU216HW,2013-02-25 18:41:00,
2013-02-25 12:46:00,39.4,26.2,30.10,NNW,338,0.4,2.9,59,0.00,,,0.00,WUHU216HW,2013-02-25 18:46:00,
2013-02-25 12:51:00,40.0,24.6,30.10,West,270,0.9,2.5,54,0.00,,,0.00,WUHU216HW,2013-02-25 18:51:00,
2013-02-25 12:56:00,39.2,24.3,30.11,WSW,248,0.4,2.5,55,0.00,,,0.00,WUHU216HW,2013-02-25 18:56:00,
2013-02-25 13:01:00,41.2,25.8,30.11,WNW,293,2.9,2.9,54,0.00,,,0.00,WUHU216HW,2013-02-25 19:01:00,
2013-02-25 13:06:00,42.1,26.7,30.10,NNW,338,0.4,2.9,54,0.00,,,0.00,WUHU216HW,2013-02-25 19:06:00,
2013-02-25 13:11:00,42.8,25.6,30.10,WSW,248,1.8,2.9,50,0.00,,,0.00,WUHU216HW,2013-02-25 19:11:00,
2013-02-25 13:16:00,41.4,24.6,30.10,WSW,248,1.1,4.5,51,0.00,,,0.00,WUHU216HW,2013-02-25 19:16:00,
2013-02-25 13:21:00,41.6,24.8,30.10,NNW,338,1.1,4.5,51,0.00,,,0.00,WUHU216HW,2013-02-25 19:21:00,
2013-02-25 13:26:00,41.4,25.0,30.10,West,270,0.4,2.7,52,0.00,,,0.00,WUHU216HW,2013-02-25 19:26:00,
2013-02-25 13:31:00,42.5,26.9,30.10,NNW,338,0.4,2.5,54,0.00,,,0.00,WUHU216HW,2013-02-25 19:31:00,
2013-02-25 13:36:00,42.1,25.3,30.10,WNW,293,2.5,3.4,51,0.00,,,0.00,WUHU216HW,2013-02-25 19:36:00,
2013-02-25 13:41:00,40.7,23.9,30.10,WSW,248,2.9,4.0,51,0.00,,,0.00,WUHU216HW,2013-02-25 19:41:00,
2013-02-25 13:46:00,39.6,24.2,30.10,West,270,3.8,4.0,54,0.00,,,0.00,WUHU216HW,2013-02-25 19:46:00,
2013-02-25 13:51:00,39.1,24.1,30.09,SW,225,2.5,3.8,55,0.00,,,0.00,WUHU216HW,2013-02-25 19:51:00,
2013-02-25 13:56:00,39.6,24.7,30.09,West,270,2.5,3.8,55,0.00,,,0.00,WUHU216HW,2013-02-25 19:56:00,
2013-02-25 14:01:00,39.2,24.3,30.09,NW,315,0.7,4.0,55,0.00,,,0.00,WUHU216HW,2013-02-25 20:01:00,
2013-02-25 14:06:00,39.2,23.9,30.09,WSW,248,2.0,4.0,54,0.00,,,0.00,WUHU216HW,2013-02-25 20:06:00,
2013-02-25 14:11:00,38.9,23.9,30.09,West,270,2.2,5.1,55,0.00,,,0.00,WUHU216HW,2013-02-25 20:11:00,
2013-02-25 14:16:00,38.5,24.1,30.09,WSW,248,0.4,5.1,56,0.00,,,0.00,WUHU216HW,2013-02-25 20:16:00,
2013-02-25 14:21:00,38.9,24.4,30.08,SW,225,1.8,3.8,56,0.00,,,0.00,WUHU216HW,2013-02-25 20:21:00,
2013-02-25 14:26:00,39.4,24.5,30.08,WSW,248,2.2,3.8,55,0.00,,,0.00,WUHU216HW,2013-02-25 20:26:00,
2013-02-25 14:31:00,39.8,24.9,30.08,NNW,338,0.9,2.9,55,0.00,,,0.00,WUHU216HW,2013-02-25 20:31:00,
2013-02-25 14:36:00,39.6,24.7,30.08,WSW,248,2.0,4.0,55,0.00,,,0.00,WUHU216HW,2013-02-25 20:36:00,
2013-02-25 14:41:00,40.0,25.4,30.08,NW,315,0.7,4.0,56,0.00,,,0.00,WUHU216HW,2013-02-25 20:41:00,
2013-02-25 14:46:00,41.0,25.1,30.08,West,270,2.7,3.4,53,0.00,,,0.00,WUHU216HW,2013-02-25 20:46:00,
2013-02-25 14:51:00,40.5,25.0,30.08,WSW,248,1.3,3.6,54,0.00,,,0.00,WUHU216HW,2013-02-25 20:51:00,
2013-02-25 14:56:00,41.0,25.6,30.08,SE,135,1.3,3.6,54,0.00,,,0.00,WUHU216HW,2013-02-25 20:56:00,
2013-02-25 15:01:00,41.9,26.5,30.09,West,270,0.4,1.8,54,0.00,,,0.00,WUHU216HW,2013-02-25 21:01:00,
2013-02-25 15:06:00,43.2,27.6,30.09,West,270,0.2,1.6,54,0.00,,,0.00,WUHU216HW,2013-02-25 21:06:00,
2013-02-25 15:11:00,43.4,26.0,30.08,WSW,248,2.5,2.7,50,0.00,,,0.00,WUHU216HW,2013-02-25 21:11:00,
2013-02-25 15:16:00,42.7,26.6,30.09,ESE,113,0.4,2.9,53,0.00,,,0.00,WUHU216HW,2013-02-25 21:16:00,
2013-02-25 15:21:00,42.8,26.5,30.09,NE,45,0.4,2.9,52,0.00,,,0.00,WUHU216HW,2013-02-25 21:21:00,
2013-02-25 15:26:00,42.7,25.8,30.09,North,0,0.2,2.5,51,0.00,,,0.00,WUHU216HW,2013-02-25 21:26:00,
2013-02-25 15:31:00,43.2,26.3,30.09,NW,315,0.4,2.0,51,0.00,,,0.00,WUHU216HW,2013-02-25 21:31:00,
2013-02-25 15:36:00,43.9,27.9,30.08,East,90,0.4,2.0,53,0.00,,,0.00,WUHU216HW,2013-02-25 21:36:00,
2013-02-25 15:41:00,44.5,25.9,30.09,NNW,338,2.2,2.2,48,0.00,,,0.00,WUHU216HW,2013-02-25 21:41:00,
2013-02-25 15:46:00,42.5,24.7,30.09,WNW,293,1.1,3.1,49,0.00,,,0.00,WUHU216HW,2013-02-25 21:46:00,
2013-02-25 15:51:00,41.9,24.7,30.09,WSW,248,0.7,3.1,50,0.00,,,0.00,WUHU216HW,2013-02-25 21:51:00,
2013-02-25 15:56:00,42.1,24.8,30.08,West,270,1.1,1.6,50,0.00,,,0.00,WUHU216HW,2013-02-25 21:56:00,
2013-02-25 16:01:00,42.8,26.5,30.09,SW,225,0.2,1.6,52,0.00,,,0.00,WUHU216HW,2013-02-25 22:01:00,
2013-02-25 16:06:00,43.4,26.5,30.09,SE,135,0.2,1.1,51,0.00,,,0.00,WUHU216HW,2013-02-25 22:06:00,
2013-02-25 16:11:00,43.7,26.4,30.09,SW,225,0.9,1.1,50,0.00,,,0.00,WUHU216HW,2013-02-25 22:11:00,
2013-02-25 16:16:00,42.8,25.0,30.09,West,270,0.4,2.0,49,0.00,,,0.00,WUHU216HW,2013-02-25 22:16:00,
2013-02-25 16:21:00,41.6,23.8,30.09,WSW,248,2.0,3.1,49,0.00,,,0.00,WUHU216HW,2013-02-25 22:21:00,
2013-02-25 16:26:00,40.0,23.7,30.09,SW,225,0.4,3.1,52,0.00,,,0.00,WUHU216HW,2013-02-25 22:26:00,
2013-02-25 16:31:00,40.0,24.1,30.09,SW,225,1.1,2.5,53,0.00,,,0.00,WUHU216HW,2013-02-25 22:31:00,
2013-02-25 16:36:00,39.6,24.2,30.09,West,270,0.9,2.5,54,0.00,,,0.00,WUHU216HW,2013-02-25 22:36:00,
2013-02-25 16:41:00,39.2,23.9,30.09,WSW,248,1.6,1.8,54,0.00,,,0.00,WUHU216HW,2013-02-25 22:41:00,
2013-02-25 16:46:00,38.5,23.7,30.09,WSW,248,1.3,2.2,55,0.00,,,0.00,WUHU216HW,2013-02-25 22:46:00,
2013-02-25 16:51:00,38.2,23.8,30.09,WNW,293,1.6,2.2,56,0.00,,,0.00,WUHU216HW,2013-02-25 22:51:00,
2013-02-25 16:56:00,37.3,23.4,30.09,WSW,248,1.8,2.9,57,0.00,,,0.00,WUHU216HW,2013-02-25 22:56:00,
2013-02-25 17:01:00,36.9,24.0,30.08,NW,315,1.1,2.9,59,0.00,,,0.00,WUHU216HW,2013-02-25 23:01:00,
2013-02-25 17:06:00,36.4,23.9,30.08,WSW,248,2.2,2.5,60,0.00,,,0.00,WUHU216HW,2013-02-25 23:06:00,
2013-02-25 17:11:00,35.6,23.2,30.08,WSW,248,1.8,2.5,60,0.00,,,0.00,WUHU216HW,2013-02-25 23:11:00,
2013-02-25 17:16:00,35.1,23.0,30.08,NW,315,1.1,3.4,61,0.00,,,0.00,WUHU216HW,2013-02-25 23:16:00,
2013-02-25 17:21:00,34.6,22.9,30.08,WSW,248,1.8,3.4,62,0.00,,,0.00,WUHU216HW,2013-02-25 23:21:00,
2013-02-25 17:26:00,34.2,22.5,30.09,NW,315,1.3,1.8,62,0.00,,,0.00,WUHU216HW,2013-02-25 23:26:00,
2013-02-25 17:31:00,33.7,22.3,30.09,WSW,248,1.3,2.2,63,0.00,,,0.00,WUHU216HW,2013-02-25 23:31:00,
2013-02-25 17:36:00,33.1,22.2,30.09,West,270,1.8,2.5,64,0.00,,,0.00,WUHU216HW,2013-02-25 23:36:00,
2013-02-25 17:41:00,32.4,22.3,30.09,West,270,1.8,2.5,66,0.00,,,0.00,WUHU216HW,2013-02-25 23:41:00,
2013-02-25 17:46:00,31.7,21.6,30.09,West,270,1.1,2.5,66,0.00,,,0.00,WUHU216HW,2013-02-25 23:46:00,
2013-02-25 17:51:00,31.3,21.6,30.08,West,270,0.7,2.5,67,0.00,,,0.00,WUHU216HW,2013-02-25 23:51:00,
2013-02-25 17:56:00,30.8,20.7,30.08,WNW,293,0.4,1.3,66,0.00,,,0.00,WUHU216HW,2013-02-25 23:56:00,
2013-02-25 18:01:00,30.4,21.1,30.08,WSW,248,1.3,1.6,68,0.00,,,0.00,WUHU216HW,2013-02-26 00:01:00,
2013-02-25 18:06:00,29.9,20.5,30.09,West,270,0.9,1.6,68,0.00,,,0.00,WUHU216HW,2013-02-26 00:06:00,
2013-02-25 18:11:00,29.5,21.0,30.08,WSW,248,1.1,1.6,70,0.00,,,0.00,WUHU216HW,2013-02-26 00:11:00,
2013-02-25 18:16:00,29.3,20.8,30.08,North,0,0.4,1.3,70,0.00,,,0.00,WUHU216HW,2013-02-26 00:16:00,
2013-02-25 18:21:00,29.0,20.1,30.08,WNW,293,0.4,1.1,69,0.00,,,0.00,WUHU216HW,2013-02-26 00:21:00,
2013-02-25 18:26:00,29.0,20.1,30.08,WSW,248,0.4,1.1,69,0.00,,,0.00,WUHU216HW,2013-02-26 00:26:00,
2013-02-25 18:31:00,29.0,20.1,30.08,WSW,248,0.4,0.4,69,0.00,,,0.00,WUHU216HW,2013-02-26 00:31:00,
2013-02-25 19:00:00,27.0,19.2,30.10,WSW,248,0.4,0.4,72,0.00,,,0.00,WUHU216HW,2013-02-26 01:00:00,
2013-02-25 19:05:00,27.0,19.2,30.10,WSW,248,0.4,0.4,72,0.00,,,0.00,WUHU216HW,2013-02-26 01:05:00,
2013-02-25 20:00:00,24.1,17.0,30.10,NNW,338,0.0,0.0,74,0.00,,,0.00,WUHU216HW,2013-02-26 02:00:00,
2013-02-25 20:05:00,23.8,16.7,30.10,NNW,338,0.0,0.0,74,0.00,,,0.00,WUHU216HW,2013-02-26 02:05:00,
2013-02-25 20:10:00,23.8,16.7,30.10,NNW,338,0.0,0.0,74,0.00,,,0.00,WUHU216HW,2013-02-26 02:10:00,
2013-02-25 21:00:00,22.5,16.7,30.08,East,90,0.0,0.0,78,0.00,,,0.00,WUHU216HW,2013-02-26 03:00:00,
2013-02-25 21:05:00,22.5,16.7,30.08,NNW,338,0.0,0.2,78,0.00,,,0.00,WUHU216HW,2013-02-26 03:05:00,
2013-02-25 21:10:00,22.1,16.0,30.08,NNW,338,0.0,0.2,77,0.00,,,0.00,WUHU216HW,2013-02-26 03:10:00,
2013-02-25 21:15:00,21.8,15.7,30.08,NNE,23,0.0,0.0,77,0.00,,,0.00,WUHU216HW,2013-02-26 03:15:00,
2013-02-25 21:20:00,21.8,15.9,30.07,ESE,113,0.0,0.4,78,0.00,,,0.00,WUHU216HW,2013-02-26 03:20:00,
2013-02-25 21:25:00,21.4,15.6,30.08,WSW,248,0.0,1.1,78,0.00,,,0.00,WUHU216HW,2013-02-26 03:25:00,
2013-02-25 21:30:00,21.1,15.2,30.08,SE,135,0.0,1.1,78,0.00,,,0.00,WUHU216HW,2013-02-26 03:30:00,
2013-02-25 21:35:00,20.9,15.0,30.07,NNW,338,0.0,0.2,78,0.00,,,0.00,WUHU216HW,2013-02-26 03:35:00,
2013-02-25 21:40:00,20.5,14.7,30.07,NNW,338,0.0,0.2,78,0.00,,,0.00,WUHU216HW,2013-02-26 03:40:00,
2013-02-25 21:45:00,20.5,14.7,30.06,NNW,338,0.0,0.0,78,0.00,,,0.00,WUHU216HW,2013-02-26 03:45:00,
2013-02-25 21:50:00,20.5,14.7,30.06,NNW,338,0.0,0.0,78,0.00,,,0.00,WUHU216HW,2013-02-26 03:50:00,
2013-02-25 22:00:00,20.0,14.8,30.05,East,90,0.2,0.2,80,0.00,,,0.00,WUHU216HW,2013-02-26 04:00:00,
2013-02-25 22:05:00,20.0,14.8,30.05,East,90,0.2,0.2,80,0.00,,,0.00,WUHU216HW,2013-02-26 04:05:00,
2013-02-25 23:00:00,18.0,13.1,30.06,North,0,0.0,0.0,81,0.00,,,0.00,WUHU216HW,2013-02-26 05:00:00,
2013-02-25 23:05:00,17.6,12.4,30.06,North,0,0.0,0.0,80,0.00,,,0.00,WUHU216HW,2013-02-26 05:05:00,
2013-02-25 23:10:00,17.3,12.9,30.06,WSW,248,0.2,0.7,83,0.00,,,0.00,WUHU216HW,2013-02-26 05:10:00,
2013-02-25 23:15:00,16.9,12.3,30.06,ENE,68,0.0,0.7,82,0.00,,,0.00,WUHU216HW,2013-02-26 05:15:00,
2013-02-25 23:20:00,16.9,12.3,30.06,SSW,203,0.0,0.4,82,0.00,,,0.00,WUHU216HW,2013-02-26 05:20:00,
2013-02-25 23:25:00,16.9,12.6,30.07,West,270,0.0,0.4,83,0.00,,,0.00,WUHU216HW,2013-02-26 05:25:00,
2013-02-25 23:30:00,16.9,12.3,30.07,SSE,158,0.0,0.4,82,0.00,,,0.00,WUHU216HW,2013-02-26 05:30:00,
2013-02-25 23:35:00,16.9,12.8,30.07,West,270,0.2,0.4,84,0.00,,,0.00,WUHU216HW,2013-02-26 05:35:00,
2013-02-25 23:40:00,16.9,12.8,30.07,West,270,0.2,0.4,84,0.00,,,0.00,WUHU216HW,2013-02-26 05:40:00,